Location: Darmstadt
(49.8706°N, 8.6494°E)
Time: 07:29:13
(UTC+01:00)

Cosmos 2263 Rocket - Pass Details

Date: 31 October 2020
Orbit: 822 x 850 km, 71.0° (Epoch: 03 December)

Event Time Altitude Azimuth Distance (km) Brightness Sun altitude
Rises 19:03:22 0° 332° (NNW) 3,422 5.8 -19.7°
Reaches altitude 10° 19:05:51 10° 335° (NNW) 2,485 5.0 -20.1°
Maximum altitude 19:11:32 64° 57° (ENE) 940 2.2 -21.0°
Enters shadow 19:13:35 39° 123° (ESE) 1,257 2.7 -21.4°
